Wind_Speed
3 2 2 1 3 3 2 2 3 4 4 5 5 6 6 6 5 6 7 7 7 6 6 6 6 6 6 7 6 6 5 5 5 4 4 4 4 3 3 4 3 3 3 3 3 4 4 5 5
2 2 1 0 3 2 4 3 3 4 5 5 6 6 6 7 6 7 7 7 7 7 6 7 7 7 7 7 7 6 6 6 5 5 5 5 5 5 5 5 5 5 5 4 4 4 5 5 5
4 3 3 1 0 2 4 5 4 5 5 5 6 6 7 7 8 8 7 8 8 7 7 7 8 7 7 7 8 7 6 6 6 6 6 7 7 7 7 7 6 6 6 5 5 5 6 6 6
4 4 4 3 4 5 5 5 5 5 5 5 6 6 7 7 8 8 8 8 9 8 8 8 8 8 8 8 9 8 7 7 7 7 7 8 8 8 8 8 8 7 7 7 7 7 7 7 7
5 4 3 5 7 7 6 6 6 6 5 5 6 6 7 7 8 9 9 9 9 9 8 8 9 9 9 9 9 9 8 8 8 8 8 8 9 9 9 9 9 9 8 8 8 8 8 8 8
5 5 4 6 7 7 7 7 7 6 6 6 6 7 8 8 8 9 10 10 10 10 10 10 10 10 10 10 10 9 9 9 9 9 9 9 9 10 11 11 10 10 10 10 10 9 10 10 9
7 6 7 8 7 8 7 8 8 7 7 7 7 8 8 9 9 10 11 11 11 10 10 10 10 10 10 10 10 10 9 10 9 9 9 9 10 10 11 11 11 11 11 11 11 10 11 11 10
8 8 9 9 9 9 8 8 7 7 7 8 7 8 9 10 11 11 12 12 12 11 11 11 11 10 10 11 11 11 11 10 10 10 10 10 10 11 11 11 12 12 12 12 12 12 12 12 11
10 10 11 11 11 10 9 8 8 7 7 8 9 10 11 11 12 13 13 13 13 12 13 12 11 12 11 11 12 12 11 11 11 11 11 11 11 11 11 11 12 12 13 13 13 13 13 13 12
11 11 12 11 11 10 10 10 9 8 9 9 10 11 12 13 13 14 14 15 14 14 14 13 12 12 12 11 11 11 12 12 12 12 12 12 12 12 12 12 12 12 13 14 14 14 14 14 13
11 11 11 11 10 10 11 10 10 10 10 10 11 12 13 14 14 14 15 15 15 15 14 13 12 12 12 12 12 13 13 13 13 12 12 12 13 14 14 13 13 13 13 14 15 15 15 14 14
11 12 12 11 11 11 11 11 11 11 11 12 12 13 14 14 14 15 15 15 14 14 13 12 12 12 12 12 13 13 13 13 14 13 13 13 13 14 14 14 14 14 14 14 15 15 15 15 15
12 12 12 12 12 12 12 12 13 12 12 12 12 13 13 13 14 15 14 14 14 14 13 12 13 13 13 13 14 13 14 14 14 15 14 13 14 14 15 14 15 14 15 15 15 16 16 16 16
13 13 13 12 12 13 13 13 14 13 13 13 13 13 13 14 14 15 15 15 15 15 14 13 14 14 14 14 14 14 15 15 15 14 14 14 14 15 15 15 15 15 15 16 17 16 17 16 16
14 14 14 14 13 13 14 14 15 14 14 13 13 14 14 14 14 15 15 16 16 15 15 15 14 13 13 14 15 16 16 15 15 15 15 16 16 16 16 16 16 16 16 16 16 16 17 17 17
14 14 14 15 15 15 14 13 16 15 14 15 15 15 14 14 14 15 16 16 16 16 16 15 15 14 14 15 16 17 17 16 16 16 17 17 18 18 17 17 16 16 16 17 17 17 17 18 19
15 15 15 16 17 17 16 15 16 16 15 16 16 15 15 15 15 15 16 16 17 16 16 15 15 15 15 16 17 17 17 17 17 17 18 17 18 18 18 18 18 18 18 18 18 17 18 19 20
15 15 16 17 18 17 17 16 16 16 16 16 17 17 17 16 16 17 17 16 16 17 16 16 16 16 16 16 17 17 17 17 18 18 18 18 18 18 19 19 18 19 19 18 18 18 19 20 21
16 17 17 17 19 18 18 17 17 17 17 18 17 17 17 17 17 17 16 16 17 17 17 17 17 17 17 17 17 18 18 18 19 19 19 19 19 19 20 19 19 19 19 19 19 19 20 21 22
17 17 17 18 19 18 18 18 17 17 17 17 17 17 18 18 18 17 17 18 18 18 18 18 19 19 19 19 19 20 20 20 21 21 21 20 20 21 21 20 20 20 20 20 21 21 21 21 22
17 17 18 19 20 19 19 18 18 17 17 18 18 18 18 19 19 18 18 19 19 19 19 19 19 20 21 20 20 21 22 22 22 21 21 21 21 21 22 21 21 21 21 21 22 22 21 21 21
18 18 18 19 20 19 19 19 18 18 18 18 18 18 18 19 19 19 20 20 20 20 20 21 21 21 22 22 22 22 22 22 22 22 22 22 22 22 21 22 22 22 22 22 21 22 21 21 21
18 18 18 18 19 19 19 20 18 18 19 19 19 19 19 19 20 20 20 21 21 21 21 21 21 22 22 22 23 22 22 22 22 23 22 22 22 22 21 21 22 22 23 22 23 24 24 24 23
17 18 18 18 19 20 19 21 20 19 20 20 20 20 20 20 20 20 20 21 22 22 21 22 22 22 22 22 23 23 23 22 22 22 22 21 21 21 20 21 21 22 23 23 24 25 25 25 25
17 17 17 17 18 20 20 22 21 20 20 20 21 20 20 20 20 20 20 21 22 22 22 22 22 22 22 23 23 24 23 22 22 21 21 20 21 20 20 22 23 23 24 24 25 25 26 27 26
17 17 17 18 18 19 20 22 21 20 20 21 21 21 21 21 21 21 21 21 21 21 22 22 22 22 23 23 24 24 23 22 22 21 21 20 20 21 21 23 25 25 25 25 25 26 26 27 27
18 18 18 19 20 20 20 22 20 20 20 21 21 22 22 21 21 21 21 21 21 21 21 20 21 22 23 23 24 24 23 23 23 22 22 21 20 21 22 23 24 25 25 26 26 26 27 27 28
18 18 19 19 20 20 21 21 20 21 21 22 22 22 22 22 21 21 21 21 20 20 20 20 21 22 23 23 23 23 23 23 23 23 23 22 21 22 22 23 24 24 25 26 26 27 27 28 28
19 19 19 20 21 21 21 21 21 21 22 22 21 22 21 21 21 20 19 19 19 19 20 20 21 22 23 23 22 22 22 23 22 22 22 21 22 23 23 24 24 24 25 27 28 28 28 28 29
19 19 19 21 22 22 23 21 22 22 22 21 21 20 20 20 20 19 18 18 18 19 20 20 21 22 22 23 22 22 22 22 22 22 22 22 23 24 24 24 25 25 25 27 27 27 27 28 29
Wind_Direction
144 136 127 96 54 33 325 326 331 330 342 349 351 353 352 346 342 334 330 331 329 323 324 327 323 318 317 315 310 307 303 297 296 297 292 298 302 306 298 285 273 260 250 248 251 253 247 244 239
190 193 200 122 70 324 311 318 322 320 324 341 348 348 347 343 341 333 331 332 328 321 317 316 315 311 307 306 303 300 296 294 292 289 288 284 285 290 291 289 280 270 258 252 249 252 250 247 245
220 232 248 283 299 285 298 310 308 317 327 334 340 338 338 339 339 337 333 327 326 317 312 312 307 306 303 299 298 297 292 289 288 288 292 285 281 283 284 287 283 278 272 264 261 257 252 246 245
237 248 266 281 281 293 303 309 309 317 328 336 338 336 332 336 336 334 329 325 319 314 308 307 306 303 301 295 293 292 290 287 285 286 288 287 277 275 280 281 279 275 275 271 270 264 256 251 248
248 254 277 284 285 292 299 306 310 310 316 327 334 336 334 333 335 330 328 323 317 311 307 305 302 301 301 297 292 288 287 286 284 281 283 289 280 271 271 276 276 273 271 271 272 268 258 254 247
251 255 257 262 282 294 304 307 308 302 310 312 316 318 326 334 333 328 325 320 313 308 305 301 299 298 297 294 291 288 287 285 283 281 284 287 283 274 269 271 271 270 269 268 269 264 263 257 250
250 252 253 263 273 287 295 301 306 300 298 303 310 311 316 322 323 325 322 316 313 307 304 303 301 298 293 288 286 287 287 288 286 283 284 286 283 278 271 268 267 267 264 263 263 261 260 256 252
252 255 259 264 269 277 287 298 302 295 295 297 300 303 312 316 317 320 320 317 313 309 306 301 297 299 295 290 287 284 286 287 290 288 284 286 286 280 274 268 265 266 263 262 261 259 256 254 253
257 253 255 259 262 266 280 291 294 294 297 298 296 298 306 312 315 319 319 318 314 307 302 298 298 298 299 294 290 287 282 283 286 287 283 281 281 280 276 268 264 266 263 261 259 256 256 254 254
258 258 257 255 257 265 273 282 285 288 295 296 296 297 302 306 309 313 315 316 315 309 302 296 295 297 298 295 290 287 282 283 286 287 283 278 277 279 277 269 268 267 262 260 260 256 256 255 256
261 257 254 252 257 265 270 276 278 281 286 293 296 299 302 304 306 308 310 311 312 310 306 299 296 294 294 293 290 290 288 287 287 285 283 281 279 280 277 269 267 266 263 260 260 259 255 254 254
259 258 253 253 261 267 268 273 275 276 283 288 294 299 302 303 306 308 308 307 308 311 306 303 296 293 292 293 291 292 292 291 286 283 282 280 281 279 274 270 267 264 262 261 260 257 256 254 252
257 259 259 261 266 268 269 273 276 278 281 284 289 295 301 301 301 305 306 305 304 307 307 303 296 294 293 292 292 291 292 292 288 284 284 281 281 279 274 270 268 264 260 259 260 258 256 255 252
260 261 266 266 268 271 272 275 279 279 280 284 288 293 296 300 301 303 304 305 308 308 304 302 301 300 295 294 293 290 290 292 292 286 281 280 278 277 273 268 268 265 261 258 258 256 255 255 253
261 263 266 269 270 275 274 277 280 278 280 285 288 293 296 300 300 300 300 303 305 305 301 298 299 299 296 295 295 293 293 292 290 287 282 279 279 277 274 270 269 264 263 262 260 258 256 256 254
261 262 265 271 273 276 275 275 278 282 282 285 288 291 297 302 301 300 300 301 301 302 299 296 295 294 294 295 295 295 295 292 290 288 283 280 278 277 274 270 268 264 264 266 264 260 258 256 255
259 260 265 271 276 278 278 277 280 283 282 283 286 289 294 297 301 302 301 300 299 299 297 296 295 294 294 294 296 298 294 290 288 286 283 279 277 277 274 271 270 267 265 264 264 262 261 258 256
258 262 266 270 275 277 278 281 281 282 281 281 283 286 291 293 297 298 299 299 297 298 297 297 297 295 295 296 298 299 296 290 288 287 285 280 279 277 273 272 271 268 266 263 264 265 265 262 260
262 265 269 270 273 275 279 282 283 284 280 283 285 286 288 293 295 296 295 299 298 297 295 294 294 296 297 297 298 299 295 291 288 287 285 281 278 276 274 273 271 269 265 265 266 268 267 265 264
264 267 269 270 272 274 275 279 282 285 284 285 286 287 288 291 293 294 294 294 297 298 296 293 291 293 295 295 296 297 294 290 288 286 282 279 278 275 274 272 271 269 267 268 269 268 269 267 267
263 266 267 270 274 276 276 276 281 286 285 286 286 286 288 289 291 294 295 295 295 295 293 293 293 292 292 295 293 294 294 290 287 287 283 280 280 277 274 272 269 268 267 267 267 267 268 268 266
263 266 267 269 273 277 279 279 280 282 284 288 289 290 289 289 291 292 292 292 291 291 292 291 292 292 294 295 296 297 296 293 289 286 284 282 282 281 275 271 269 267 268 267 266 266 267 266 265
263 265 267 269 271 274 278 282 283 286 290 292 291 292 292 291 292 292 291 289 289 289 290 291 292 293 294 295 297 297 297 295 291 287 283 282 281 279 275 271 269 268 266 266 266 266 266 266 265
264 267 269 272 274 275 278 283 284 290 292 293 292 290 290 292 294 294 292 290 288 289 290 291 294 294 294 294 295 297 298 296 291 288 285 283 280 278 275 271 271 270 268 267 268 268 266 265 264
264 269 276 277 276 277 283 285 288 290 291 292 291 291 292 292 293 294 295 294 293 293 293 292 292 292 293 293 294 297 298 296 294 291 289 286 281 279 277 275 274 271 270 270 270 269 267 265 265
265 267 269 274 278 282 286 287 291 292 292 293 291 290 291 291 293 295 297 296 295 294 294 291 291 293 293 294 295 297 296 294 293 292 291 288 285 281 280 277 275 272 271 271 271 271 270 267 267
264 267 270 275 280 283 285 288 290 292 294 294 293 292 292 291 292 294 296 297 297 296 295 292 292 293 294 296 296 295 295 295 296 297 293 289 286 284 284 282 280 277 274 272 273 273 270 269 269
262 267 270 275 279 282 284 289 292 295 297 296 295 293 292 292 294 294 295 297 298 298 297 296 295 294 294 295 296 296 292 294 295 294 294 291 289 288 286 284 282 280 278 275 274 273 270 269 269
264 267 272 276 277 278 281 287 292 294 296 297 295 293 293 294 294 294 295 297 297 298 297 297 296 294 293 294 296 297 295 294 295 296 295 295 294 290 289 287 284 281 279 278 276 274 272 271 271
262 268 273 277 279 281 283 287 289 291 294 296 296 296 294 294 295 293 291 294 296 297 298 297 297 297 296 295 295 295 298 297 298 297 297 298 297 294 291 290 288 283 280 278 277 275 275 273 272
Height
5911 5911 5911 5912 5913 5914 5914 5912 5910 5909 5908 5907 5906 5905 5904 5903 5903 5904 5901 5898 5897 5896 5895 5894 5893 5893 5892 5891 5891 5890 5889 5888 5888 5887 5887 5887 5887 5886 5886 5886 5886 5886 5886 5886 5886 5886 5886 5886 5886
5911 5911 5912 5912 5914 5916 5913 5911 5910 5909 5907 5906 5905 5904 5903 5901 5900 5899 5898 5897 5896 5894 5893 5893 5892 5891 5891 5890 5889 5888 5887 5887 5886 5886 5886 5886 5885 5885 5885 5885 5885 5885 5885 5885 5885 5885 5885 5885 5885
5910 5910 5912 5912 5913 5914 5912 5910 5909 5907 5906 5905 5904 5903 5902 5900 5899 5898 5897 5895 5894 5893 5892 5891 5890 5889 5889 5888 5887 5886 5886 5885 5885 5884 5884 5884 5884 5883 5883 5883 5883 5883 5883 5883 5883 5883 5883 5884 5884
5909 5910 5911 5912 5912 5911 5910 5909 5907 5906 5905 5904 5903 5902 5900 5899 5898 5897 5895 5894 5893 5891 5890 5890 5889 5888 5887 5886 5885 5884 5883 5883 5882 5882 5882 5882 5882 5881 5881 5881 5881 5881 5881 5881 5881 5881 5882 5882 5882
5908 5910 5911 5911 5910 5909 5908 5907 5906 5905 5904 5903 5902 5901 5899 5898 5896 5895 5894 5892 5891 5890 5889 5888 5887 5886 5885 5884 5883 5882 5881 5880 5880 5880 5879 5879 5879 5879 5879 5879 5879 5879 5879 5879 5879 5879 5879 5880 5880
5908 5909 5911 5910 5909 5908 5906 5905 5904 5903 5903 5902 5901 5900 5898 5897 5895 5894 5892 5890 5889 5887 5886 5885 5884 5883 5882 5882 5881 5880 5879 5878 5877 5877 5877 5877 5877 5876 5876 5877 5877 5877 5877 5877 5877 5877 5877 5878 5878
5907 5908 5908 5908 5907 5906 5905 5903 5902 5902 5901 5900 5899 5898 5896 5895 5893 5892 5890 5888 5887 5885 5884 5883 5882 5881 5880 5879 5878 5878 5877 5876 5875 5875 5874 5874 5874 5873 5873 5873 5874 5874 5874 5874 5874 5874 5875 5875 5875
5905 5906 5906 5906 5905 5904 5903 5902 5901 5900 5899 5899 5898 5897 5895 5893 5891 5890 5888 5886 5884 5883 5882 5881 5879 5878 5877 5877 5876 5875 5874 5873 5872 5872 5871 5871 5870 5870 5870 5870 5870 5871 5871 5871 5871 5871 5872 5872 5873
5902 5904 5904 5904 5903 5902 5901 5900 5899 5898 5898 5897 5896 5895 5893 5891 5889 5887 5885 5884 5882 5881 5879 5878 5877 5876 5875 5874 5873 5872 5871 5870 5869 5869 5868 5867 5867 5867 5866 5866 5867 5867 5867 5867 5868 5868 5868 5869 5869
5900 5901 5901 5900 5900 5899 5899 5898 5897 5897 5896 5895 5893 5892 5890 5888 5886 5884 5883 5881 5880 5878 5876 5875 5874 5873 5872 5871 5870 5869 5869 5868 5867 5866 5865 5864 5864 5863 5862 5862 5863 5863 5863 5864 5864 5864 5865 5865 5866
5897 5898 5898 5897 5897 5897 5897 5896 5895 5894 5894 5893 5891 5889 5887 5885 5883 5882 5880 5878 5877 5875 5873 5872 5871 5870 5869 5868 5867 5866 5865 5865 5864 5863 5862 5861 5860 5860 5859 5859 5859 5859 5859 5860 5860 5860 5861 5862 5862
5895 5895 5895 5895 5895 5895 5894 5894 5893 5892 5892 5890 5888 5887 5884 5883 5881 5879 5877 5876 5874 5872 5870 5869 5868 5867 5866 5865 5864 5863 5862 5861 5861 5860 5859 5858 5857 5857 5856 5856 5856 5855 5855 5856 5856 5856 5857 5858 5858
5892 5892 5892 5892 5892 5892 5892 5891 5891 5890 5889 5887 5886 5884 5882 5880 5878 5876 5875 5873 5871 5869 5868 5867 5865 5864 5863 5862 5862 5860 5859 5858 5857 5856 5855 5854 5854 5853 5852 5852 5852 5852 5852 5852 5852 5853 5853 5854 5854
5890 5890 5890 5889 5889 5889 5889 5888 5888 5887 5885 5884 5883 5881 5880 5877 5875 5874 5872 5870 5868 5867 5865 5864 5862 5861 5860 5859 5858 5857 5856 5854 5853 5852 5851 5850 5850 5849 5848 5848 5848 5847 5848 5848 5848 5849 5849 5850 5850
5887 5888 5887 5887 5887 5886 5886 5886 5884 5883 5882 5881 5879 5878 5876 5875 5873 5871 5869 5867 5866 5864 5863 5861 5860 5858 5857 5856 5855 5853 5852 5850 5849 5848 5847 5846 5845 5845 5844 5844 5843 5843 5843 5844 5844 5844 5845 5846 5846
5884 5885 5885 5885 5884 5883 5884 5883 5880 5879 5878 5877 5876 5875 5873 5872 5870 5868 5866 5865 5863 5861 5860 5858 5857 5856 5854 5852 5851 5849 5847 5846 5845 5844 5842 5842 5841 5840 5839 5839 5839 5839 5839 5839 5840 5840 5841 5841 5842
5881 5882 5883 5883 5880 5880 5880 5879 5877 5876 5875 5874 5873 5872 5870 5869 5867 5865 5863 5861 5860 5858 5857 5855 5853 5852 5850 5849 5847 5845 5843 5841 5840 5839 5838 5837 5836 5835 5835 5834 5834 5834 5834 5835 5835 5835 5836 5836 5837
5880 5880 5879 5879 5877 5876 5876 5875 5874 5873 5871 5870 5869 5868 5867 5865 5864 5862 5860 5858 5856 5855 5853 5851 5850 5848 5846 5844 5843 5841 5839 5837 5835 5834 5833 5832 5831 5830 5829 5829 5829 5829 5829 5829 5829 5830 5830 5831 5831
5875 5875 5875 5875 5874 5873 5872 5871 5871 5869 5868 5867 5865 5864 5863 5862 5860 5858 5856 5854 5852 5851 5849 5848 5846 5844 5842 5840 5838 5836 5834 5832 5830 5829 5828 5827 5826 5825 5824 5823 5823 5823 5824 5824 5824 5824 5824 5825 5825
5870 5870 5871 5871 5869 5869 5868 5867 5867 5865 5864 5863 5861 5860 5859 5858 5856 5855 5853 5851 5849 5847 5845 5843 5842 5840 5838 5836 5834 5832 5829 5827 5825 5823 5822 5821 5820 5819 5818 5818 5817 5817 5818 5818 5818 5818 5818 5818 5819
5866 5866 5867 5866 5865 5864 5864 5864 5863 5861 5860 5859 5858 5856 5855 5853 5851 5850 5848 5846 5844 5843 5841 5839 5837 5835 5833 5831 5829 5826 5823 5821 5819 5818 5816 5815 5814 5813 5812 5811 5811 5811 5811 5811 5811 5812 5812 5812 5812
5862 5862 5862 5861 5860 5861 5860 5859 5860 5857 5856 5854 5853 5851 5850 5849 5847 5845 5844 5842 5840 5838 5836 5835 5833 5831 5828 5826 5823 5821 5818 5816 5814 5812 5810 5809 5807 5806 5805 5805 5805 5805 5805 5805 5805 5805 5806 5806 5806
5858 5858 5857 5857 5856 5856 5856 5855 5856 5853 5851 5850 5848 5847 5845 5844 5842 5841 5839 5837 5835 5834 5832 5830 5828 5826 5823 5821 5818 5816 5814 5811 5809 5806 5805 5803 5801 5800 5799 5799 5799 5799 5799 5799 5799 5799 5799 5799 5799
5853 5853 5853 5852 5852 5852 5852 5851 5850 5849 5847 5846 5844 5842 5841 5840 5838 5836 5834 5832 5831 5829 5827 5825 5823 5821 5818 5816 5814 5811 5808 5806 5803 5801 5798 5797 5795 5794 5793 5792 5792 5792 5792 5792 5792 5792 5792 5792 5792
5849 5850 5850 5850 5849 5849 5848 5846 5846 5844 5842 5841 5839 5838 5836 5835 5833 5831 5829 5827 5825 5823 5821 5819 5818 5816 5813 5811 5808 5806 5803 5800 5798 5795 5793 5791 5789 5788 5787 5786 5786 5785 5785 5785 5785 5784 5784 5784 5784
5845 5846 5847 5847 5847 5846 5843 5841 5841 5839 5837 5836 5834 5832 5831 5829 5828 5826 5824 5822 5820 5818 5816 5814 5812 5810 5808 5806 5803 5800 5797 5795 5792 5790 5788 5785 5784 5782 5781 5780 5779 5778 5778 5777 5777 5776 5776 5776 5776
5841 5841 5842 5842 5840 5840 5839 5837 5836 5834 5832 5831 5829 5827 5825 5824 5822 5820 5818 5816 5814 5812 5810 5808 5807 5805 5802 5800 5798 5795 5792 5790 5787 5785 5782 5780 5778 5776 5775 5773 5772 5771 5770 5770 5769 5769 5768 5768 5768
5837 5837 5837 5837 5836 5835 5835 5833 5832 5829 5828 5826 5824 5821 5820 5818 5817 5815 5813 5811 5809 5807 5805 5803 5801 5799 5797 5795 5792 5789 5787 5784 5782 5779 5776 5774 5772 5770 5769 5767 5765 5764 5763 5762 5761 5761 5760 5760 5760
5833 5833 5832 5832 5832 5831 5830 5831 5827 5824 5822 5820 5818 5816 5815 5813 5812 5810 5809 5806 5805 5802 5800 5799 5797 5794 5792 5789 5786 5784 5782 5779 5776 5773 5771 5768 5766 5764 5762 5760 5758 5757 5756 5755 5754 5753 5752 5752 5751
5828 5828 5828 5828 5826 5825 5824 5827 5821 5819 5817 5815 5813 5811 5810 5808 5807 5805 5804 5802 5800 5798 5796 5794 5791 5789 5786 5784 5781 5779 5776 5773 5770 5768 5765 5763 5760 5758 5755 5753 5751 5749 5748 5747 5746 5745 5744 5743 5743